Regional Weather Roundup
Issued by NWS

Home | Current Version | Previous Version | Graphics & Text | Print | Product List | Glossary On
Versions: 1 2 3 4 5 6 7 8 9 10 11 12 13 14 15 16 17 18 19 20 21 22 23 24 25 26 27 28 29 30 31 32 33 34 35 36 37 38 39 40 41 42 43 44 45 46 47 48 49 50
678
ASUS44 KJAN 240303
RWRMS

MISSISSIPPI HOURLY WEATHER ROUNDUP
NATIONAL WEATHER SERVICE JACKSON MS
900 PM CST SUN NOV 23 2014

NOTE: "FAIR: INDICATES FEW OR NO CLOUDS BELOW 12,000 FEET WITH NO
SIGNIFICANT WEATHER AND/OR OBSTRUCTIONS TO VISIBILITY.

MSZ001>002-007>008-010>013-018>021-025>028-034>036-240400-
NORTHWEST MISSISSIPPI

CITY           SKY/WX    TMP DP  RH WIND       PRES   REMARKS
CLARKSDALE     FAIR      59  59 100 S8        29.49S
CLEVELAND      FAIR      60  59  95 S13G18    29.50R
GREENWOOD      CLEAR     62  57  83 S13       29.53R
GREENVILLE     CLEAR     64  57  78 S18       29.49S
GRENADA        FAIR      59  55  88 CALM      29.53R
OLIVE BRANCH   CLOUDY    61  61 100 SW16G25   29.47F
OXFORD         FAIR      57  55  94 S9        29.53R
TUNICA         CLEAR     59  57  94 S13       29.48S
$$

MSZ003>006-009-014>017-022>024-029>033-037>039-240400-
NORTHEAST MISSISSIPPI

CITY           SKY/WX    TMP DP  RH WIND       PRES   REMARKS
COLUMBUS AFB   CLEAR     63  58  84 S12       29.57S
CORINTH        CLOUDY    63  57  82 S9        29.51R
GOLDN TRIANGLE CLEAR     61  57  88 S15G21    29.57R
STARKVILLE       N/A     61  57  88 S7        29.57R
TUPELO         PTCLDY    58  56  93 S9        29.54R
$$

MSZ040-058-240400-
CENTRAL MISSISSIPPI

CITY           SKY/WX    TMP DP  RH WIND       PRES   REMARKS
JACKSON INTL   CLEAR     64  58  80 S17       29.61R
JACKSON HAWKNS CLEAR     64  56  75 S14G21    29.61R
MERIDIAN KEY   CLEAR     61  57  87 S13       29.64R
MERIDIAN NAS   CLEAR     64  58  80 S9G17     29.64R
RAYMOND        FAIR      64  59  82 S10G24    29.60R
VICKSBURG      CLEAR     65  58  78 S9G16     29.59R
$$

MSZ059>079-240400-
SOUTH MISSISSIPPI

CITY           SKY/WX    TMP DP  RH WIND       PRES   REMARKS
BROOKHAVEN     FAIR      64  63  94 S14       29.66R
HATTIESBURG    PTCLDY    64  61  90 S7        29.71R
MCCOMB         PTCLDY    64  61  90 S9        29.67S
NATCHEZ        CLEAR     64  61  88 S10G17    29.64R
PINE BELT      CLEAR     63  55  77 S10       29.70R
$$

MSZ080>082-240400-
COASTAL MISSISSIPPI

CITY           SKY/WX    TMP DP  RH WIND       PRES   REMARKS
BILOXI         PTCLDY    63  63 100 SW10      29.74R
PASCAGOULA     PTCLDY    68  66  93 SW10      29.74R
GULFPORT       CLOUDY    65  63  93 S7        29.73R
$$



USA.gov is the U.S. government's official web portal to all federal, state and local government web resources and services.